Location: Allie Creek
(37.5926°N, 89.8526°W)
Time: 11:03:43
(UTC+00:00)

Resurs 01 Rocket - Pass Details

Date: 26 September 2023
Orbit: 631 x 642 km, 97.8° (Epoch: 28 November)

Event Time Altitude Azimuth Distance (km) Brightness Sun altitude
Exits shadow 02:51:25 21° 318° (NW) 1,426 3.9 -35.0°
Drops below altitude 10° 02:53:10 10° 331° (NNW) 2,042 4.8 -35.3°
Sets 02:55:31 0° 340° (NNW) 2,957 5.7 -35.7°
